TimeCDT,TemperatureF,Dew PointF,Humidity,Sea Level PressureIn,VisibilityMPH,Wind Direction,Wind SpeedMPH,Gust SpeedMPH,PrecipitationIn,Events,Conditions,WindDirDegrees,DateUTC
12:09 AM,41.0,39.2,93,29.94,1.0,Calm,Calm,-,N/A,,Mist,0,2013-04-01 05:09:00
12:15 AM,41.0,39.2,93,29.94,2.5,Calm,Calm,-,N/A,,Partly Cloudy,0,2013-04-01 05:15:00
12:22 AM,42.8,41.0,93,29.94,4.0,Calm,Calm,-,N/A,,Partly Cloudy,0,2013-04-01 05:22:00
1:53 AM,41.0,39.9,96,29.95,8.0,SSW,4.6,-,N/A,,Clear,200,2013-04-01 06:53:00
2:53 AM,39.9,37.9,93,29.95,8.0,Calm,Calm,-,N/A,,Clear,0,2013-04-01 07:53:00
3:53 AM,39.0,37.9,96,29.95,10.0,Calm,Calm,-,N/A,,Clear,0,2013-04-01 08:53:00
4:10 AM,39.2,37.4,93,29.95,10.0,Calm,Calm,-,N/A,,Partly Cloudy,0,2013-04-01 09:10:00
4:53 AM,37.9,37.0,97,29.97,10.0,SSW,3.5,-,N/A,,Clear,210,2013-04-01 09:53:00
5:53 AM,37.0,36.0,96,29.99,10.0,Calm,Calm,-,N/A,,Clear,0,2013-04-01 10:53:00
6:28 AM,37.4,35.6,93,30.00,4.0,Calm,Calm,-,N/A,,Scattered Clouds,0,2013-04-01 11:28:00
6:30 AM,37.4,35.6,93,30.00,1.8,Calm,Calm,-,N/A,,Scattered Clouds,0,2013-04-01 11:30:00
6:33 AM,37.4,37.4,100,30.01,0.8,Calm,Calm,-,N/A,,Mist,0,2013-04-01 11:33:00
6:43 AM,37.4,37.4,100,30.01,1.2,Calm,Calm,-,N/A,,Scattered Clouds,0,2013-04-01 11:43:00
6:48 AM,39.2,37.4,93,30.01,3.0,Calm,Calm,-,N/A,,Scattered Clouds,0,2013-04-01 11:48:00
6:51 AM,39.2,37.4,93,30.02,1.5,Calm,Calm,-,N/A,,Scattered Clouds,0,2013-04-01 11:51:00
6:53 AM,39.0,39.0,100,30.02,1.0,Calm,Calm,-,N/A,,Mist,0,2013-04-01 11:53:00
6:58 AM,37.4,37.4,100,30.02,10.0,Calm,Calm,-,N/A,,Clear,0,2013-04-01 11:58:00
8:53 AM,51.1,43.0,74,30.08,10.0,NNE,17.3,23.0,N/A,,Clear,30,2013-04-01 13:53:00
10:53 AM,57.0,44.1,62,30.11,10.0,North,9.2,-,N/A,,Clear,10,2013-04-01 15:53:00
11:53 AM,59.0,39.9,49,30.12,10.0,North,8.1,-,N/A,,Clear,10,2013-04-01 16:53:00
12:53 PM,60.1,41.0,49,30.12,10.0,North,9.2,-,N/A,,Clear,10,2013-04-01 17:53:00
1:53 PM,62.1,42.1,48,30.11,10.0,North,10.4,-,N/A,,Clear,350,2013-04-01 18:53:00
2:53 PM,62.1,41.0,46,30.09,10.0,NW,8.1,-,N/A,,Clear,320,2013-04-01 19:53:00
3:53 PM,62.1,41.0,46,30.09,10.0,North,10.4,-,N/A,,Clear,360,2013-04-01 20:53:00
4:53 PM,62.1,39.0,43,30.09,10.0,NNW,11.5,18.4,N/A,,Clear,340,2013-04-01 21:53:00
5:53 PM,60.1,39.9,47,30.09,10.0,North,11.5,-,N/A,,Clear,360,2013-04-01 22:53:00
6:53 PM,57.0,37.9,49,30.10,10.0,North,10.4,-,N/A,,Clear,360,2013-04-01 23:53:00
7:53 PM,51.1,37.0,59,30.12,10.0,North,6.9,-,N/A,,Clear,360,2013-04-02 00:53:00
8:53 PM,51.1,39.0,63,30.12,10.0,NNE,8.1,-,N/A,,Clear,30,2013-04-02 01:53:00
9:53 PM,52.0,37.9,59,30.14,10.0,North,5.8,-,N/A,,Partly Cloudy,10,2013-04-02 02:53:00
10:53 PM,51.1,34.0,52,30.14,10.0,NE,10.4,-,N/A,,Clear,40,2013-04-02 03:53:00
11:53 PM,50.0,32.0,50,30.14,10.0,NE,5.8,-,N/A,,Partly Cloudy,50,2013-04-02 04:53:00